Location: Ingoldesthorpe
(52.8667°N, 0.5167°E)
Time: 06:15:34
(UTC+00:00)

USA 245 - Pass Details

Date: 19 May 2025
Orbit: 292 x 1030 km, 97.9° (Epoch: 02 June)

Event Time Altitude Azimuth Distance (km) Brightness Sun altitude
Exits shadow 20:37:31 - 154° (SSE) 2,369 5.9 -5.6°
Reaches altitude 10° 20:38:22 10° 153° (SSE) 2,028 5.6 -5.7°
Maximum altitude 20:42:50 69° 71° (ENE) 799 4.0 -6.2°
Drops below altitude 10° 20:48:23 10° 349° (N) 2,514 7.7 -6.8°
Sets 20:51:02 0° 347° (NNW) 3,556 8.6 -7.1°
